Lakehurst NAS, NJ

4:58 PM EDT on August 22, 2017 (GMT -0400)
Lakehurst Naes

Weather History for KNEL - December, 2013

Change the Weather History Date:

Wednesday, December 11, 2013

  Actual Average Record
Temperature  
Mean Temperature 25 °F -  
Max Temperature 17 °F 46 °F 60 °F (2006)
Min Temperature 18 °F 34 °F 18 °F (2011)
Degree Days  
Heating Degree Days 40    
Moisture  
Dew Point 19 °F    
Average Humidity 79    
Maximum Humidity 92    
Minimum Humidity 59    
Precipitation  
Precipitation 0.00 in - - ()
Sea Level Pressure  
Sea Level Pressure 30.27 in    
Wind  
Wind Speed 4 mph (West)    
Max Wind Speed 13 mph    
Max Gust Speed 18 mph    
Averages and records for this station are not official NWS values.
T = Trace of Precipitation, MM = Missing Value Source: NWS Daily Summary

Daily Weather History Graph

Daily Weather History Graph

Search for Another Location

Airport or City:

Trip Planner

Search our weather history database for the weather conditions in past years. The results will help you decide how hot, cold, wet, or windy it might be!

Date:

Astronomy

Dec. 11, 2013 Rise Set
Actual Time 7:09 AM EST 4:32 PM EST
Civil Twilight 6:38 AM EST 5:02 PM EST
Nautical Twilight 6:04 AM EST 5:36 PM EST
Astronomical Twilight 5:32 AM EST 6:09 PM EST
Moon 1:04 PM EST (12/11) 1:28 AM EST (12/11)
Length of Visible Light 10h 23m
Length of Day
9h 22m
Waxing Gibbous, 71% of the Moon is Illuminated
Dec 11
Waxing Gibbous
Dec 17
Full
Dec 25
Last Quarter
Jan 1
New
Jan 7
First Quarter

Hourly Weather History & Observations

Time (EST) Temp. Windchill Dew Point Humidity Pressure Visibility Wind Dir Wind Speed Gust Speed Precip Events Conditions
12:00 AM 24.1 °F 18.2 °F 19.9 °F 84% 30.17 in - West 4.6 mph - N/A   Unknown
1:00 AM 21.9 °F - 19.0 °F 89% 30.19 in - Calm Calm - N/A   Unknown
2:00 AM 19.9 °F - 17.1 °F 89% 30.22 in - Calm Calm - N/A   Unknown
3:00 AM 19.9 °F 12.1 °F 17.1 °F 89% 30.26 in - WSW 5.8 mph - N/A   Unknown
4:00 AM 21.0 °F 16.2 °F 18.0 °F 88% 30.28 in - WSW 3.5 mph - N/A   Unknown
5:00 AM 21.0 °F 14.6 °F 16.0 °F 81% 30.29 in - WNW 4.6 mph - N/A   Unknown
6:00 AM 18.0 °F - 15.1 °F 88% 30.31 in - Calm Calm - N/A   Unknown
8:00 AM 18.0 °F - 16.0 °F 92% 30.35 in - Calm Calm - N/A   Unknown
9:00 AM 24.1 °F 17.0 °F 19.9 °F 84% 30.37 in - WSW 5.8 mph - N/A   Unknown
10:00 AM 28.0 °F 20.0 °F 21.0 °F 75% 30.37 in - WSW 8.1 mph - N/A   Unknown
11:00 AM 28.9 °F 18.6 °F 21.0 °F 72% 30.35 in - West 12.7 mph 18.4 mph N/A   Unknown
12:00 PM 30.0 °F 20.5 °F 21.0 °F 69% 30.31 in - West 11.5 mph - N/A   Unknown
1:00 PM 30.9 °F 22.2 °F 19.0 °F 61% 30.28 in - West 10.4 mph - N/A   Unknown
2:00 PM 32.0 °F 24.2 °F 21.0 °F 64% 30.26 in - WSW 9.2 mph - N/A   Unknown
3:00 PM 32.0 °F 24.2 °F 19.0 °F 59% 30.26 in - West 9.2 mph - N/A   Unknown
4:00 PM 30.9 °F 23.5 °F 18.0 °F 59% 30.25 in - West 8.1 mph - N/A   Unknown
5:00 PM 28.0 °F 24.2 °F 19.0 °F 69% 30.25 in - SW 3.5 mph - N/A   Unknown
6:00 PM 24.1 °F - 19.0 °F 81% 30.25 in - Calm Calm - N/A   Unknown
7:00 PM 24.1 °F - 19.9 °F 84% 30.25 in - Calm Calm - N/A   Unknown
8:00 PM 23.0 °F - 19.9 °F 88% 30.26 in - Calm Calm - N/A   Unknown
9:00 PM 21.9 °F 17.2 °F 18.0 °F 85% 30.25 in - West 3.5 mph - N/A   Unknown
10:00 PM 19.9 °F 13.4 °F 16.0 °F 85% 30.25 in - West 4.6 mph - N/A   Unknown
11:00 PM 19.9 °F - 16.0 °F 85% 30.25 in - Calm Calm - N/A   Unknown